Powrót do katalogu

CZ-6A DEB

AktywnyPO
NORAD 56667·DEBRIS·🇨🇳 China

Wystrzelony Nov 11, 2022 z Taiyuan Satellite Launch Center

Loading…

Następne Przeloty (najbliższe 24 godziny)

TLE

ŚwieżeSource: Space-Track

Epoka: Sep 14, 2026, 04:53 UTC

1 56667U 22151AGT 26257.20361619  .00001448  00000-0  31810-3 0  9994
2 56667  98.8076 350.6545 0105848  49.2960 311.7372 14.55821911184738

Śledź CZ-6A DEB w czasie rzeczywistym z AllMySat

Download on the App Store